Regional Weather Roundup
Issued by NWS

Home | Current Version | Previous Version | Text Only | Print | Product List | Glossary Off
Versions: 1 2 3 4 5 6 7 8 9 10 11 12 13 14 15 16 17 18 19 20 21 22 23 24 25 26 27 28 29 30 31 32 33 34 35 36 37 38 39 40 41 42 43 44 45 46 47 48 49 50

000
ASUS45 KSLC 280810
RWRUT

UTAH REGIONAL WEATHER ROUNDUP
NATIONAL WEATHER SERVICE SALT LAKE CITY UT
200 AM MDT TUE JUL 28 2015

UTZ001>011-023>025-280900-

NORTHERN UTAH

CITY           SKY/WX    TMP DP  RH WIND       PRES   REMARKS
BRIGHAM CITY   CLEAR     60  28  28 CALM      30.19S
HILL AFB       NOT AVBL
LOGAN            N/A    N/A N/A N/A MISG      30.20S
OGDEN          CLEAR     62  32  32 N12       30.18R
PROVO AIRPORT  CLEAR     63  36  36 NW22      30.16R
SALT LAKE CITY CLEAR     60  38  43 N6        30.16R
VERNAL         CLEAR     60  33  36 CALM      30.13R
WENDOVER       CLEAR     63  27  25 N10       30.20R
HEBER CITY     CLEAR     54  34  47 CALM      30.22R
WEST JORDAN    CLEAR     61  36  39 NW13      30.19R

$$

UTZ012>022-026-027-280900-

SOUTHERN/CENTRAL UTAH

CITY           SKY/WX    TMP DP  RH WIND       PRES   REMARKS
BLANDING       CLEAR     61  25  25 NW6       30.16S
BRYCE CANYON   CLEAR     47  27  45 N8        30.28S
CEDAR CITY     CLEAR     59  30  33 CALM      30.17R
DELTA          CLEAR     64  35  34 NE13G20   30.16R
HANKSVILLE     CLEAR     70  34  26 CALM      30.05S
MILFORD        CLEAR     63  34  33 N15       30.14R
MOAB/CYNLANDS  CLEAR     71  32  23 N5        30.02R
PRICE          CLEAR     63  33  32 W12       30.15R
ST GEORGE      SUNNY     82  34  17 NE16      29.94R
KANAB          CLEAR     57  34  41 NE6       30.14R

$$

REGIONAL REPORTS     COLORADO/ARIZONA

CITY           SKY/WX    TMP DP  RH WIND       PRES   REMARKS
CRAIG, CO      CLEAR     49  33  54 CALM      30.23S
GRAND JUNCTION CLEAR     65  33  30 E5        30.04R
RIFLE          CLEAR     67  34  29 NW7       30.12R
MONTROSE       CLEAR     62  35  36 VRB3      30.11R
CORTEZ         CLEAR     53  38  56 E7        30.12S
PAGE, AZ       CLEAR     78  24  13 S6        30.00S
GRAND CANYON   CLEAR     43  21  41 E3        30.24S
KINGMAN        CLEAR     68  17  14 CALM      29.98S
FLAGSTAFF      CLEAR     53  41  63 CALM      30.25F

$$

REGIONAL REPORTS    NEVADA/IDAHO/WYOMING

CITY           SKY/WX    TMP DP  RH WIND       PRES   REMARKS
LAS VEGAS, NV  CLEAR     86  30  13 S3        29.81R
ELY            CLEAR     57  25  29 N12       30.23R
ELKO           CLEAR     54  26  34 E3        30.22S
POCATELLO, ID  CLEAR     43  43 100 NW9       30.23R
BURLEY         CLEAR     48  38  68 NW6       30.20S
EVANSTON, WY   CLEAR     49  33  54 NE6       30.30R
ROCK SPRINGS   CLEAR     53  33  46 W10       30.24R
KEMMERER       CLEAR     41  23  48 NW6       30.30R

$$



USA.gov is the U.S. government's official web portal to all federal, state and local government web resources and services.